Zurück zum Katalog

HULIANWANG DIGUI-166

AktivKommunikationPO
NORAD 68658·PAYLOAD·🇨🇳 China

Gestartet Apr 8, 2026 von Taiyuan Satellite Launch Center

Loading…

Nächste Überflüge (nächste 24 Stunden)

TLE

AktuellSource: Space-Track

Epoche: Sep 14, 2026, 13:27 UTC

1 68658U 26076C   26257.56083683  .00000026  00000-0  26669-4 0  9996
2 68658  86.4989  13.6269 0001289 108.3555 251.7719 13.24408408 21204

Verfolge HULIANWANG DIGUI-166 in Echtzeit mit AllMySat

Download on the App Store